Weather in Sandnessjoen

Norway     66°00′57″N   12°37′42″E
temp.,
°C
wind,
m/s
gust,
m/s
humid.,
%
clouds,
%
prec.,
mm/h
press.,
hPa
HPBL,
m
15 june, tue
tue1523:00+9ssw7890100 1.1 999590
02:00+10sw7982100 3.1 998941
05:00+9wsw898595 1.9 998949
08:00+9wsw91083100 4.2 999996
11:00+9wsw998444 1.8 1001792
14:00+7nw101187100 4.4 10061154
17:00+7w8985100 1.9 10091045
20:00+7w91068100 3.9 10111390
16 june, wed
wed1623:00+7w101169100 0.8 10121316
02:00+7w996299 1.4 10121538
05:00+7w886294 0.4 10131550
08:00+7wsw776599 0.9 10131407
11:00+7sw5575100 0.8 10141026
14:00+7ssw447590 1.4 1014956
17:00+8ese44776 0.1 1014395
20:00+10e456493 0.1 1012360
17 june, thu
thu1723:00+10ese7769100 0.0 1011166
02:00+10ese6669100 0.1 1010117
05:00+9se6781100 1.1 1011183
08:00+11s5988100 3.1 1012468
11:00+11ssw6992100 0.4 1014558
14:00+11sw6889100 0.4 1014380
17:00+12ssw5889100 0.2 1014222
20:00+11ssw4490100 1.4 101491
18 june, fri
fri1823:00+11ssw4492100 2.3 1013119
02:00+11ssw4694100 2.9 1012275
05:00+11ssw5693100 0.9 1011309
08:00+10sw6892100 1.6 1012566
11:00+11ssw81084100 0.5 1012897
14:00+10ssw10138698 1.4 10141079
17:00+9wsw11138330 1.2 10161023
20:00+9wsw101184100 2.0 1018978
19 june, sat
sat1923:00+9w8879100 0.6 1021921
02:00+8wsw6779100 1.1 1023879
05:00+8wsw447787 0.4 1023680
08:00+8wsw227222 0.6 1024359
11:00+9n43726 0.0 1023425
14:00+9n8673100 0.0 1022473
17:00+9n10107990 0.0 1019362
20:00+11n8979100 0.0 1017211